| time (UTC) | temp F | wind direction | speed MPH | gust MPH | rain 1hr in | rain 24hr in | rain mn in | humidity % | barometer mb |
| 20260505200559 | 72 | 252 | 4.0 | 8.0 | 0.00 | 0.00 | 0.00 | 74 | 1016.4 |
| 20260505200059 | 72 | 359 | 6.0 | 10.0 | 0.00 | 0.00 | 0.00 | 73 | 1016.5 |
| 20260505195558 | 73 | 359 | 7.0 | 10.0 | 0.00 | 0.00 | 0.00 | 72 | 1016.4 |
| 20260505195058 | 73 | 359 | 4.0 | 10.0 | 0.00 | 0.00 | 0.00 | 73 | 1016.6 |
| 20260505194100 | 72 | 359 | 5.0 | 8.0 | 0.00 | 0.00 | 0.00 | 73 | 1016.5 |
| 20260505193558 | 72 | 359 | 5.0 | 7.0 | 0.00 | 0.00 | 0.00 | 74 | 1016.5 |
| 20260505193058 | 72 | 359 | 5.0 | 9.0 | 0.00 | 0.00 | 0.00 | 72 | 1016.5 |
| 20260505192603 | 73 | 359 | 5.0 | 11.0 | 0.00 | 0.00 | 0.00 | 71 | 1016.5 |
| 20260505192057 | 74 | 359 | 7.0 | 12.0 | 0.00 | 0.00 | 0.00 | 69 | 1016.5 |
| 20260505191604 | 74 | 359 | 7.0 | 12.0 | 0.00 | 0.00 | 0.00 | 68 | 1016.4 |
| 20260505191057 | 75 | 359 | 4.0 | 12.0 | 0.00 | 0.00 | 0.00 | 69 | 1016.5 |
| 20260505190558 | 74 | 359 | 7.0 | 12.0 | 0.00 | 0.00 | 0.00 | 67 | 1016.5 |
| 20260505190113 | 75 | 359 | 4.0 | 10.0 | 0.00 | 0.00 | 0.00 | 67 | 1016.5 |
| 20260505185557 | 75 | 359 | 6.0 | 11.0 | 0.00 | 0.00 | 0.00 | 66 | 1016.5 |
| 20260505185057 | 74 | 359 | 7.0 | 14.0 | 0.00 | 0.00 | 0.00 | 66 | 1016.5 |
| 20260505184057 | 75 | 359 | 3.0 | 12.0 | 0.00 | 0.00 | 0.00 | 69 | 1016.5 |
| 20260505183557 | 74 | 359 | 7.0 | 11.0 | 0.00 | 0.00 | 0.00 | 68 | 1016.5 |
| 20260505183056 | 74 | 359 | 6.0 | 12.0 | 0.00 | 0.00 | 0.00 | 70 | 1016.6 |
| 20260505182556 | 74 | 359 | 6.0 | 11.0 | 0.00 | 0.00 | 0.00 | 69 | 1016.6 |
| 20260505182059 | 74 | 359 | 7.0 | 12.0 | 0.00 | 0.00 | 0.00 | 67 | 1016.5 |
| 20260505181559 | 75 | 359 | 7.0 | 12.0 | 0.00 | 0.00 | 0.00 | 66 | 1016.5 |
| 20260505181057 | 75 | 359 | 5.0 | 11.0 | 0.00 | 0.00 | 0.00 | 65 | 1016.5 |
| 20260505180555 | 75 | 220 | 6.0 | 11.0 | 0.00 | 0.00 | 0.00 | 68 | 1016.6 |
| 20260505180056 | 75 | 359 | 4.0 | 10.0 | 0.00 | 0.00 | 0.00 | 69 | 1016.6 |
| 20260505175554 | 75 | 359 | 7.0 | 11.0 | 0.00 | 0.00 | 0.00 | 69 | 1016.5 |
| 20260505175054 | 75 | 359 | 4.0 | 13.0 | 0.00 | 0.00 | 0.00 | 68 | 1016.6 |
| 20260505174055 | 75 | 359 | 7.0 | 12.0 | 0.00 | 0.00 | 0.00 | 68 | 1016.7 |
| 20260505173555 | 75 | 359 | 4.0 | 11.0 | 0.00 | 0.00 | 0.00 | 68 | 1016.7 |
| 20260505173053 | 75 | 359 | 6.0 | 13.0 | 0.00 | 0.00 | 0.00 | 68 | 1016.8 |
| 20260505172552 | 75 | 359 | 6.0 | 13.0 | 0.00 | 0.00 | 0.00 | 69 | 1016.9 |
| 20260505172053 | 75 | 359 | 7.0 | 13.0 | 0.00 | 0.00 | 0.00 | 65 | 1016.9 |
| 20260505171552 | 75 | 359 | 7.0 | 15.0 | 0.00 | 0.00 | 0.00 | 68 | 1017.0 |
| 20260505171055 | 75 | 255 | 9.0 | 15.0 | 0.00 | 0.00 | 0.00 | 68 | 1017.1 |
| 20260505170554 | 75 | 253 | 4.0 | 14.0 | 0.00 | 0.00 | 0.00 | 68 | 1017.2 |
| 20260505170057 | 74 | 359 | 8.0 | 14.0 | 0.00 | 0.00 | 0.00 | 69 | 1017.2 |
| 20260505165550 | 74 | 263 | 5.0 | 14.0 | 0.00 | 0.00 | 0.00 | 68 | 1017.3 |
| 20260505165050 | 75 | 359 | 9.0 | 14.0 | 0.00 | 0.00 | 0.00 | 68 | 1017.3 |
| 20260505164049 | 75 | 359 | 6.0 | 10.0 | 0.00 | 0.00 | 0.00 | 68 | 1017.4 |
| 20260505163553 | 75 | 359 | 6.0 | 11.0 | 0.00 | 0.00 | 0.00 | 70 | 1017.5 |
| 20260505163050 | 74 | 359 | 4.0 | 11.0 | 0.00 | 0.00 | 0.00 | 72 | 1017.6 |
| 20260505162546 | 74 | 224 | 5.0 | 12.0 | 0.00 | 0.00 | 0.00 | 72 | 1017.7 |
| 20260505162045 | 74 | 359 | 6.0 | 14.0 | 0.00 | 0.00 | 0.00 | 71 | 1017.7 |
| 20260505161545 | 74 | 359 | 7.0 | 15.0 | 0.00 | 0.00 | 0.00 | 71 | 1017.7 |
| 20260505161044 | 73 | 359 | 8.0 | 16.0 | 0.00 | 0.00 | 0.00 | 72 | 1017.8 |
| 20260505160547 | 73 | 359 | 10.0 | 16.0 | 0.00 | 0.00 | 0.00 | 70 | 1017.9 |
| 20260505153037 | 73 | 359 | 8.0 | 13.0 | 0.00 | 0.00 | 0.00 | 75 | 1018.4 |
| 20260505152535 | 73 | 359 | 8.0 | 15.0 | 0.00 | 0.00 | 0.00 | 73 | 1018.4 |
| 20260505152037 | 73 | 359 | 8.0 | 14.0 | 0.00 | 0.00 | 0.00 | 73 | 1018.5 |
| 20260505151535 | 73 | 359 | 9.0 | 14.0 | 0.00 | 0.00 | 0.00 | 75 | 1018.5 |
| 20260505151034 | 72 | 255 | 5.0 | 16.0 | 0.00 | 0.00 | 0.00 | 75 | 1018.6 |
| 20260505150536 | 72 | 359 | 9.0 | 16.0 | 0.00 | 0.00 | 0.00 | 76 | 1018.6 |
| 20260505140526 | 70 | 245 | 5.0 | 10.0 | 0.00 | 0.00 | 0.00 | 82 | 1019.5 |
| 20260505125002 | 67 | 359 | 9.0 | 12.0 | 0.00 | 0.00 | 0.00 | 86 | 1019.6 |
| 20260505124003 | 67 | 359 | 9.0 | 11.0 | 0.00 | 0.00 | 0.00 | 88 | 1019.5 |
| 20260505123501 | 67 | 359 | 8.0 | 13.0 | 0.00 | 0.00 | 0.00 | 89 | 1019.4 |
| 20260505123113 | 67 | 359 | 9.0 | 13.0 | 0.00 | 0.00 | 0.00 | 88 | 1019.3 |
| 20260505122559 | 66 | 359 | 8.0 | 12.0 | 0.00 | 0.00 | 0.00 | 89 | 1019.3 |
| 20260505122058 | 66 | 359 | 8.0 | 13.0 | 0.00 | 0.00 | 0.00 | 89 | 1019.3 |
| 20260505121556 | 66 | 359 | 9.0 | 13.0 | 0.00 | 0.00 | 0.00 | 89 | 1019.3 |
| 20260505121058 | 66 | 359 | 9.0 | 13.0 | 0.00 | 0.00 | 0.00 | 90 | 1019.1 |
| 20260505120553 | 66 | 359 | 9.0 | 13.0 | 0.00 | 0.00 | 0.00 | 90 | 1019.1 |
| 20260505120055 | 66 | 359 | 10.0 | 14.0 | 0.00 | 0.00 | 0.00 | 90 | 1019.1 |
| 20260505115551 | 66 | 359 | 10.0 | 14.0 | 0.00 | 0.00 | 0.00 | 90 | 1019.1 |
| 20260505115049 | 65 | 359 | 10.0 | 14.0 | 0.00 | 0.00 | 0.00 | 90 | 1019.1 |
| 20260505114048 | 65 | 359 | 10.0 | 14.0 | 0.00 | 0.00 | 0.00 | 90 | 1019.0 |
| 20260505113548 | 65 | 359 | 11.0 | 14.0 | 0.00 | 0.00 | 0.00 | 90 | 1018.9 |
| 20260505113050 | 65 | 359 | 10.0 | 14.0 | 0.00 | 0.00 | 0.00 | 90 | 1018.9 |
| 20260505112543 | 65 | 359 | 10.0 | 15.0 | 0.00 | 0.00 | 0.00 | 91 | 1018.8 |
| 20260505112042 | 65 | 359 | 9.0 | 15.0 | 0.00 | 0.00 | 0.00 | 91 | 1018.8 |
| 20260505111540 | 64 | 359 | 10.0 | 14.0 | 0.00 | 0.00 | 0.00 | 91 | 1018.7 |
| 20260505111039 | 64 | 359 | 9.0 | 13.0 | 0.00 | 0.00 | 0.00 | 92 | 1018.8 |
| 20260505110538 | 64 | 359 | 10.0 | 13.0 | 0.00 | 0.00 | 0.00 | 92 | 1018.6 |
| 20260505102024 | 63 | 359 | 10.0 | 12.0 | 0.00 | 0.00 | 0.00 | 93 | 1018.2 |
| 20260505101523 | 63 | 359 | 10.0 | 13.0 | 0.00 | 0.00 | 0.00 | 93 | 1018.2 |
| 20260505101022 | 63 | 359 | 10.0 | 13.0 | 0.00 | 0.00 | 0.00 | 93 | 1018.2 |
| 20260505100520 | 62 | 359 | 9.0 | 14.0 | 0.00 | 0.00 | 0.00 | 93 | 1018.1 |
| 20260505100026 | 63 | 359 | 9.0 | 15.0 | 0.00 | 0.00 | 0.00 | 93 | 1018.1 |
| 20260505095518 | 63 | 359 | 11.0 | 15.0 | 0.00 | 0.00 | 0.00 | 93 | 1018.1 |
| 20260505095017 | 63 | 359 | 11.0 | 16.0 | 0.00 | 0.00 | 0.00 | 93 | 1018.0 |
| 20260505093003 | 62 | 359 | 10.0 | 15.0 | 0.00 | 0.00 | 0.00 | 93 | 1017.5 |
| 20260505092503 | 62 | 359 | 8.0 | 15.0 | 0.00 | 0.00 | 0.00 | 93 | 1017.5 |
| 20260505092004 | 62 | 359 | 9.0 | 12.0 | 0.00 | 0.00 | 0.00 | 93 | 1017.4 |
| 20260505091503 | 62 | 359 | 9.0 | 15.0 | 0.00 | 0.00 | 0.00 | 93 | 1017.4 |
| 20260505091006 | 62 | 359 | 11.0 | 15.0 | 0.00 | 0.00 | 0.00 | 93 | 1017.3 |
| 20260505090502 | 62 | 359 | 9.0 | 14.0 | 0.00 | 0.00 | 0.00 | 93 | 1017.2 |
| 20260505090006 | 62 | 359 | 11.0 | 15.0 | 0.00 | 0.00 | 0.00 | 93 | 1017.2 |
| 20260505085100 | 62 | 359 | 11.0 | 15.0 | 0.00 | 0.00 | 0.00 | 93 | 1017.1 |
| 20260505084600 | 62 | 359 | 10.0 | 14.0 | 0.00 | 0.00 | 0.00 | 94 | 1017.1 |
| 20260505084100 | 62 | 359 | 9.0 | 14.0 | 0.00 | 0.00 | 0.00 | 94 | 1017.1 |
| 20260505083600 | 61 | 359 | 10.0 | 14.0 | 0.00 | 0.00 | 0.00 | 95 | 1017.1 |
| 20260505083109 | 61 | 359 | 10.0 | 14.0 | 0.00 | 0.00 | 0.00 | 95 | 1017.1 |
| 20260505082559 | 61 | 359 | 9.0 | 14.0 | 0.00 | 0.00 | 0.00 | 95 | 1017.1 |
| 20260505082100 | 61 | 359 | 10.0 | 14.0 | 0.00 | 0.00 | 0.00 | 95 | 1017.0 |
| 20260505081602 | 61 | 359 | 10.0 | 16.0 | 0.00 | 0.00 | 0.00 | 94 | 1016.9 |
| 20260505081059 | 62 | 359 | 12.0 | 16.0 | 0.00 | 0.00 | 0.00 | 94 | 1016.8 |
| 20260505080601 | 61 | 359 | 11.0 | 16.0 | 0.00 | 0.00 | 0.00 | 94 | 1016.8 |
| 20260505080059 | 61 | 359 | 10.0 | 18.0 | 0.00 | 0.00 | 0.00 | 94 | 1016.8 |
| 20260505075059 | 62 | 359 | 12.0 | 18.0 | 0.00 | 0.00 | 0.00 | 94 | 1016.8 |
| 20260505074559 | 62 | 359 | 12.0 | 18.0 | 0.00 | 0.00 | 0.00 | 94 | 1016.8 |
| 20260505074100 | 62 | 359 | 12.0 | 17.0 | 0.00 | 0.00 | 0.00 | 94 | 1016.8 |
| 20260505073559 | 62 | 262 | 11.0 | 20.0 | 0.00 | 0.00 | 0.00 | 94 | 1016.8 |
| 20260505073101 | 62 | 359 | 12.0 | 20.0 | 0.00 | 0.00 | 0.00 | 94 | 1016.8 |
| 20260505072558 | 61 | 359 | 13.0 | 20.0 | 0.00 | 0.00 | 0.00 | 94 | 1016.8 |
| 20260505072058 | 62 | 359 | 14.0 | 20.0 | 0.00 | 0.00 | 0.00 | 94 | 1016.8 |
| 20260505071559 | 62 | 359 | 14.0 | 19.0 | 0.00 | 0.00 | 0.00 | 94 | 1016.8 |
| 20260505071059 | 62 | 359 | 14.0 | 19.0 | 0.00 | 0.00 | 0.00 | 94 | 1016.9 |
| 20260505070558 | 62 | 359 | 13.0 | 18.0 | 0.00 | 0.00 | 0.00 | 93 | 1016.9 |
| 20260505070059 | 62 | 359 | 13.0 | 17.0 | 0.00 | 0.00 | 0.00 | 93 | 1017.0 |
| 20260505065100 | 62 | 359 | 12.0 | 17.0 | 0.00 | 0.00 | 0.00 | 94 | 1017.1 |
| 20260505064559 | 61 | 359 | 12.0 | 15.0 | 0.00 | 0.00 | 0.00 | 94 | 1017.2 |
| 20260505064059 | 61 | 359 | 11.0 | 14.0 | 0.00 | 0.00 | 0.00 | 95 | 1017.2 |
| 20260505063602 | 61 | 359 | 10.0 | 15.0 | 0.00 | 0.00 | 0.00 | 94 | 1017.3 |
| 20260505063102 | 62 | 359 | 11.0 | 15.0 | 0.00 | 0.00 | 0.00 | 94 | 1017.4 |
| 20260505062600 | 62 | 359 | 11.0 | 16.0 | 0.00 | 0.00 | 0.00 | 94 | 1017.4 |
| 20260505062059 | 62 | 359 | 11.0 | 16.0 | 0.00 | 0.00 | 0.00 | 93 | 1017.4 |
| 20260505061604 | 62 | 359 | 11.0 | 17.0 | 0.00 | 0.00 | 0.00 | 93 | 1017.4 |
| 20260505061101 | 62 | 359 | 12.0 | 17.0 | 0.00 | 0.00 | 0.00 | 93 | 1017.4 |
| 20260505060558 | 62 | 359 | 10.0 | 16.0 | 0.00 | 0.00 | 0.00 | 93 | 1017.5 |
| 20260505060058 | 62 | 359 | 12.0 | 16.0 | 0.00 | 0.00 | 0.00 | 93 | 1017.5 |
| 20260505055100 | 62 | 359 | 10.0 | 17.0 | 0.00 | 0.00 | 0.00 | 93 | 1017.6 |
| 20260505054558 | 62 | 359 | 10.0 | 17.0 | 0.00 | 0.00 | 0.00 | 93 | 1017.6 |
| 20260505054055 | 62 | 359 | 10.0 | 17.0 | 0.00 | 0.00 | 0.00 | 93 | 1017.6 |
| 20260505053554 | 62 | 359 | 11.0 | 17.0 | 0.00 | 0.00 | 0.00 | 93 | 1017.6 |
| 20260505053055 | 62 | 359 | 13.0 | 19.0 | 0.00 | 0.00 | 0.00 | 93 | 1017.7 |
| 20260505052557 | 62 | 359 | 15.0 | 19.0 | 0.00 | 0.00 | 0.00 | 93 | 1017.6 |
| 20260505052058 | 62 | 359 | 13.0 | 18.0 | 0.00 | 0.00 | 0.00 | 94 | 1017.8 |
| 20260505051554 | 62 | 359 | 13.0 | 17.0 | 0.00 | 0.00 | 0.00 | 94 | 1017.8 |
| 20260505051054 | 62 | 359 | 12.0 | 17.0 | 0.00 | 0.00 | 0.00 | 94 | 1017.8 |
| 20260505050553 | 61 | 359 | 13.0 | 17.0 | 0.00 | 0.00 | 0.00 | 94 | 1017.8 |
| 20260505050124 | 62 | 359 | 12.0 | 17.0 | 0.00 | 0.00 | 0.00 | 94 | 1018.0 |
| 20260505041605 | 61 | 359 | 11.0 | 18.0 | 0.00 | 0.00 | 0.00 | 94 | 1018.4 |
| 20260505041054 | 61 | 359 | 12.0 | 18.0 | 0.00 | 0.00 | 0.00 | 94 | 1018.4 |
| 20260505040557 | 61 | 359 | 11.0 | 15.0 | 0.00 | 0.00 | 0.00 | 94 | 1018.5 |
| 20260505040100 | 61 | 359 | 11.0 | 14.0 | 0.00 | 0.00 | 0.00 | 94 | 1018.5 |
| 20260505035053 | 61 | 359 | 10.0 | 14.0 | 0.00 | 0.00 | 0.00 | 94 | 1018.7 |
| 20260505034553 | 61 | 359 | 9.0 | 14.0 | 0.00 | 0.00 | 0.00 | 94 | 1018.8 |
| 20260505034053 | 61 | 359 | 9.0 | 12.0 | 0.00 | 0.00 | 0.00 | 94 | 1018.8 |
| 20260505033553 | 61 | 359 | 9.0 | 11.0 | 0.00 | 0.00 | 0.00 | 94 | 1018.9 |
| 20260505033053 | 61 | 359 | 9.0 | 11.0 | 0.00 | 0.00 | 0.00 | 93 | 1019.0 |
| 20260505032552 | 61 | 359 | 8.0 | 11.0 | 0.00 | 0.00 | 0.00 | 93 | 1019.1 |
| 20260505032055 | 61 | 359 | 8.0 | 11.0 | 0.00 | 0.00 | 0.00 | 92 | 1019.0 |
| 20260505031554 | 62 | 359 | 7.0 | 10.0 | 0.00 | 0.00 | 0.00 | 92 | 1019.1 |
| 20260505031053 | 62 | 359 | 7.0 | 10.0 | 0.00 | 0.00 | 0.00 | 91 | 1019.1 |
| 20260505030552 | 62 | 359 | 7.0 | 10.0 | 0.00 | 0.00 | 0.00 | 91 | 1019.1 |
| 20260505030052 | 62 | 359 | 7.0 | 10.0 | 0.00 | 0.00 | 0.00 | 91 | 1019.2 |
| 20260505025052 | 62 | 359 | 6.0 | 9.0 | 0.00 | 0.00 | 0.00 | 91 | 1019.3 |
| 20260505024551 | 62 | 359 | 5.0 | 11.0 | 0.00 | 0.00 | 0.00 | 92 | 1019.2 |
| 20260505024051 | 62 | 359 | 6.0 | 11.0 | 0.00 | 0.00 | 0.00 | 92 | 1019.3 |
| 20260505023551 | 61 | 359 | 7.0 | 11.0 | 0.00 | 0.00 | 0.00 | 93 | 1019.3 |
| 20260505023053 | 61 | 359 | 9.0 | 13.0 | 0.00 | 0.01 | 0.00 | 93 | 1019.2 |
| 20260505022551 | 61 | 359 | 9.0 | 14.0 | 0.00 | 0.01 | 0.00 | 93 | 1019.0 |
| 20260505022052 | 61 | 359 | 10.0 | 14.0 | 0.00 | 0.01 | 0.00 | 92 | 1018.9 |
| 20260505021551 | 61 | 359 | 10.0 | 15.0 | 0.00 | 0.01 | 0.00 | 92 | 1018.9 |
| 20260505021050 | 61 | 359 | 11.0 | 15.0 | 0.00 | 0.01 | 0.00 | 92 | 1018.9 |
| 20260505020550 | 61 | 359 | 11.0 | 15.0 | 0.00 | 0.01 | 0.00 | 92 | 1018.9 |
| 20260505020050 | 61 | 359 | 10.0 | 15.0 | 0.00 | 0.01 | 0.00 | 92 | 1018.9 |
| 20260505015051 | 61 | 359 | 10.0 | 14.0 | 0.00 | 0.01 | 0.00 | 93 | 1018.9 |
| 20260505014605 | 61 | 359 | 10.0 | 14.0 | 0.00 | 0.01 | 0.00 | 93 | 1018.9 |
| 20260505014050 | 61 | 359 | 10.0 | 13.0 | 0.00 | 0.01 | 0.00 | 94 | 1018.9 |
| 20260505013550 | 61 | 359 | 9.0 | 13.0 | 0.00 | 0.01 | 0.00 | 94 | 1019.0 |
| 20260505013051 | 61 | 359 | 9.0 | 12.0 | 0.00 | 0.01 | 0.00 | 94 | 1019.0 |
| 20260505012549 | 61 | 359 | 9.0 | 12.0 | 0.00 | 0.01 | 0.00 | 94 | 1019.0 |
| 20260505012050 | 61 | 359 | 8.0 | 11.0 | 0.00 | 0.01 | 0.00 | 95 | 1018.9 |
| 20260505011550 | 61 | 359 | 7.0 | 10.0 | 0.00 | 0.01 | 0.00 | 95 | 1019.0 |
| 20260505011051 | 61 | 359 | 7.0 | 11.0 | 0.00 | 0.01 | 0.00 | 94 | 1019.1 |
| 20260505010549 | 61 | 359 | 8.0 | 11.0 | 0.00 | 0.01 | 0.00 | 95 | 1018.9 |
| 20260505010049 | 61 | 359 | 8.0 | 11.0 | 0.00 | 0.01 | 0.00 | 95 | 1019.1 |
| 20260505005048 | 61 | 359 | 8.0 | 13.0 | 0.00 | 0.01 | 0.00 | 96 | 1018.9 |
| 20260505004548 | 61 | 359 | 9.0 | 13.0 | 0.00 | 0.01 | 0.00 | 96 | 1018.7 |
| 20260505004048 | 61 | 359 | 10.0 | 13.0 | 0.00 | 0.01 | 0.00 | 97 | 1018.7 |
| 20260505003548 | 60 | 359 | 9.0 | 13.0 | 0.00 | 0.01 | 0.00 | 97 | 1018.7 |
| 20260505003048 | 60 | 359 | 9.0 | 13.0 | 0.00 | 0.01 | 0.00 | 98 | 1018.8 |
| 20260505002551 | 60 | 359 | 10.0 | 13.0 | 0.00 | 0.01 | 0.00 | 98 | 1018.7 |
| 20260505002048 | 60 | 359 | 10.0 | 13.0 | 0.00 | 0.01 | 0.00 | 98 | 1018.8 |
| 20260505001602 | 60 | 359 | 9.0 | 11.0 | 0.00 | 0.01 | 0.00 | 98 | 1018.7 |
| 20260505001047 | 60 | 359 | 8.0 | 12.0 | 0.00 | 0.01 | 0.00 | 98 | 1018.6 |
| 20260505000547 | 59 | 359 | 9.0 | 12.0 | 0.00 | 0.01 | 0.00 | 98 | 1018.7 |
| 20260505000104 | 59 | 359 | 7.0 | 11.0 | 0.00 | 0.01 | 0.00 | 98 | 1018.6 |
| 20260504235049 | 59 | 359 | 6.0 | 8.0 | 0.00 | 0.01 | 0.00 | 98 | 1018.6 |
| 20260504234606 | 59 | 359 | 5.0 | 8.0 | 0.00 | 0.01 | 0.00 | 98 | 1018.6 |
| 20260504234047 | 60 | 359 | 6.0 | 8.0 | 0.00 | 0.01 | 0.00 | 97 | 1018.6 |
| 20260504233551 | 59 | 359 | 6.0 | 8.0 | 0.00 | 0.01 | 0.00 | 97 | 1018.6 |
| 20260504233053 | 60 | 359 | 6.0 | 8.0 | 0.00 | 0.01 | 0.00 | 97 | 1018.6 |
| 20260504232548 | 60 | 359 | 5.0 | 7.0 | 0.00 | 0.01 | 0.00 | 97 | 1018.7 |
| 20260504232047 | 60 | 359 | 5.0 | 6.0 | 0.00 | 0.01 | 0.00 | 98 | 1018.8 |
| 20260504231547 | 60 | 359 | 3.0 | 4.0 | 0.00 | 0.01 | 0.00 | 98 | 1018.8 |
| 20260504231047 | 60 | 359 | 3.0 | 4.0 | 0.00 | 0.01 | 0.00 | 98 | 1018.6 |
| 20260504230547 | 60 | 359 | 2.0 | 4.0 | 0.00 | 0.01 | 0.00 | 98 | 1018.8 |
| 20260504230048 | 59 | 359 | 2.0 | 4.0 | 0.00 | 0.01 | 0.00 | 98 | 1018.5 |
| 20260504225050 | 58 | 359 | 1.0 | 2.0 | 0.00 | 0.01 | 0.00 | 98 | 1018.5 |
| 20260504224604 | 58 | 359 | 0.0 | 3.0 | 0.00 | 0.01 | 0.00 | 97 | 1018.5 |
| 20260504224047 | 58 | 359 | 1.0 | 3.0 | 0.00 | 0.01 | 0.00 | 97 | 1018.6 |
| 20260504223547 | 58 | 359 | 1.0 | 3.0 | 0.00 | 0.01 | 0.00 | 97 | 1018.5 |
| 20260504223048 | 59 | 359 | 1.0 | 2.0 | 0.00 | 0.01 | 0.00 | 96 | 1018.4 |
| 20260504222548 | 59 | 359 | 0.0 | 2.0 | 0.00 | 0.01 | 0.00 | 96 | 1018.3 |
| 20260504222048 | 60 | 359 | 0.0 | 1.0 | 0.00 | 0.01 | 0.00 | 96 | 1018.3 |
| 20260504221547 | 60 | 359 | 0.0 | 4.0 | 0.00 | 0.01 | 0.00 | 97 | 1018.3 |
| 20260504221047 | 60 | 359 | 2.0 | 6.0 | 0.00 | 0.01 | 0.00 | 97 | 1018.2 |
| 20260504220547 | 60 | 359 | 3.0 | 6.0 | 0.00 | 0.01 | 0.00 | 97 | 1018.1 |
| 20260504220047 | 60 | 359 | 4.0 | 6.0 | 0.00 | 0.01 | 0.00 | 97 | 1018.0 |
| 20260504215044 | 60 | 359 | 5.0 | 7.0 | 0.00 | 0.01 | 0.00 | 98 | 1018.0 |
| 20260504214545 | 59 | 359 | 2.0 | 6.0 | 0.00 | 0.01 | 0.00 | 97 | 1018.0 |
| 20260504214044 | 59 | 359 | 0.0 | 5.0 | 0.00 | 0.01 | 0.00 | 97 | 1018.0 |
| 20260504213545 | 59 | 359 | 2.0 | 4.0 | 0.00 | 0.01 | 0.00 | 96 | 1017.9 |
| 20260504213102 | 60 | 359 | 0.0 | 3.0 | 0.00 | 0.01 | 0.00 | 96 | 1017.9 |
| 20260504212546 | 60 | 359 | 1.0 | 6.0 | 0.00 | 0.01 | 0.00 | 96 | 1017.7 |
| 20260504212047 | 60 | 359 | 3.0 | 7.0 | 0.00 | 0.01 | 0.00 | 96 | 1017.4 |
| 20260504211544 | 60 | 359 | 4.0 | 7.0 | 0.00 | 0.01 | 0.00 | 97 | 1017.2 |
| 20260504211044 | 60 | 359 | 5.0 | 8.0 | 0.00 | 0.01 | 0.00 | 96 | 1017.1 |
| 20260504210544 | 60 | 359 | 5.0 | 9.0 | 0.00 | 0.01 | 0.00 | 96 | 1016.9 |
| 20260504210047 | 60 | 359 | 5.0 | 9.0 | 0.00 | 0.01 | 0.00 | 96 | 1016.9 |
| 20260504205045 | 60 | 359 | 6.0 | 8.0 | 0.00 | 0.01 | 0.00 | 96 | 1016.8 |
| 20260504204547 | 61 | 359 | 5.0 | 7.0 | 0.00 | 0.01 | 0.00 | 96 | 1017.1 |
| 20260504204044 | 61 | 359 | 4.0 | 7.0 | 0.00 | 0.01 | 0.00 | 96 | 1017.1 |
| 20260504203548 | 61 | 359 | 6.0 | 7.0 | 0.00 | 0.01 | 0.00 | 96 | 1017.1 |
| 20260504203056 | 61 | 359 | 5.0 | 7.0 | 0.00 | 0.01 | 0.00 | 96 | 1017.0 |
| 20260504202545 | 61 | 359 | 4.0 | 6.0 | 0.00 | 0.01 | 0.00 | 96 | 1017.0 |
| 20260504202043 | 61 | 359 | 0.0 | 3.0 | 0.00 | 0.01 | 0.00 | 97 | 1017.3 |
| 20260504201544 | 61 | 359 | 0.0 | 6.0 | 0.00 | 0.01 | 0.00 | 96 | 1017.3 |
| 20260504201044 | 60 | 359 | 3.0 | 6.0 | 0.00 | 0.01 | 0.00 | 96 | 1017.2 |